261  
ASUS44 KEWX 230210  
RWRTX  
SOUTH TEXAS REGIONAL WEATHER ROUNDUP  
NATIONAL WEATHER SERVICE AUSTIN/SAN ANTONIO TX  
900 PM CDT WED OCT 22 2014  
 
NOTE: "FAIR" INDICATED FEW OR NO CLOUDS BELOW 12,000 FEET WITH NO  
SIGNIFICANT WEATHER AND/OR S TO VISIBILITY
.  
 
* - THESE STATIONS ARE NOT NWS OR FAA STATIONS...AND ARE NOT SUBJECT  
TO NWS AND FAA QUALITY CONTROL.
 
 
TXZ171-172-183>190-230300-  
TEXAS HILL COUNTRY AND EDWARDS PLATEAU  
 
CITY SKY/WX TMP DP RH WIND PRES REMARKS
 
JUNCTION LGT RAIN 66 59 78 SW5 30.13R  
*LLANO NOT AVBL  
BURNET CLOUDY 73 57 57 E5 30.12S  
*HORSESHOE BAY CLOUDY 72 57 60 CALM 30.11R  
*KERRVILLE LGT RAIN 68 59 73 N7 30.12R  
*FREDERICKSBRG CLOUDY 65 63 91 CALM 30.12S  
*ROCKSPRINGS LGT RAIN 63 61 94 NE5 30.15S  
*BOERNE STAGE MOCLDY 68 52 56 CALM 30.11R  
*CASTROVILLE MOCLDY 76 51 41 NE3 30.08R  
HONDO CLOUDY 73 54 51 E6 30.08R  
*UVALDE CLOUDY 78 57 48 E3 30.07R  
DEL RIO LGT RAIN 65 63 93 E3 30.07S FOG  
LAUGHLIN AFB LGT RAIN 66 65 96 NE5 30.08S  
CARRIZO SPRGS MOCLDY 77 59 53 CALM 30.02S  

 
 
TXZ173-191>194-202-209-217>225-228-230300-  
CENTRAL AND SOUTH CENTRAL TEXAS  
 
CITY SKY/WX TMP DP RH WIND PRES REMARKS
 
GEORGETOWN CLEAR 72 59 64 E3 30.10R  
AUSTIN/BERGSTM MOCLDY 72 60 66 E3 30.08R  
AUSTIN/MABRY CLOUDY 74 60 61 CALM 30.10R  
*AUSTIN/EXEC MOCLDY 72 59 64 CALM 30.10R  
*LAGO VISTA MOCLDY 73 58 59 E6 30.11S  
SAN MARCOS MOCLDY 73 54 49 NE5 30.09R  
NEW BRAUNFELS MOCLDY 75 56 51 E6 30.07R  
RANDOLPH AFB MOCLDY 73 56 54 E3 30.08R  
PT SAN ANTONIO MOCLDY 77 56 47 E8 30.05R  
SAN ANTONIO MOCLDY 76 56 49 E5 30.07R  
STINSON FIELD MOCLDY 77 56 48 E6 30.05R  
*PLEASANTON MOCLDY 74 56 53 CALM 30.06R  
*LA GRANGE MOCLDY 69 62 80 CALM 30.06R  
*GIDDINGS MOCLDY 68 59 71 CALM 30.13R  
*GONZALES MOCLDY 74 60 60 E5 30.07R  

 
 
TXZ163>164-176>182-195>201-210>213-226-227-235-230300-  
SOUTHEAST TEXAS  
 
CITY SKY/WX TMP DP RH WIND PRES REMARKS
 
COLLEGE STN MOCLDY 71 57 61 NE6 30.09R  
*BRYAN MOCLDY 66 58 76 E5 30.11R  
*CALDWELL MOCLDY 70 57 64 CALM 30.12R  
*CROCKETT MOCLDY 63 61 94 CALM 30.14S  
*BRENHAM MOCLDY 71 60 67 E5 30.10R  
HUNTSVILLE PTCLDY 64 57 78 CALM 30.11R  
CONROE CLEAR 61 58 90 CALM 30.10R  
HOUSTON BUSH CLEAR 67 59 75 CALM 30.08R  
HOUSTON HOBBY CLEAR 70 61 73 CALM 30.07R  
*HOUSTON SW AP CLEAR 61 59 94 CALM 30.09R  
PEARLAND CLEAR 68 61 78 CALM 30.08R  
HOUSTON HOOKS CLEAR 64 59 83 CALM 30.09R  
ELLINGTON FLD PTCLDY 72 63 73 CALM 30.08R  
SUGAR LAND CLEAR 66 61 84 CALM 30.08R  
*HOUSTON EXEC CLEAR 64 N/A N/A NE6 30.09S  
*CLEVELAND MUN NOT AVBL  
*WHARTON CLEAR 66 58 75 E3 30.08R  
*COLUMBUS FAIR 68 59 72 E3 30.07R  

 
 
TXZ214>216-236>238-230300-  
THE UPPER TEXAS COAST  
 
CITY SKY/WX TMP DP RH WIND PRES REMARKS
 
*ORANGE CLEAR 66 60 80 N3 30.08S  
PORT ARTHUR CLEAR 69 60 73 NE5 30.06R  
GALVESTON CLEAR 72 61 68 NE6 30.07R  
ANGLETON CLEAR 67 61 81 E5 30.07R  
*BAY CITY N/A 67 63 87 E3 30.07R  
PALACIOS CLEAR 71 61 70 E10 30.06R  

 
 
TXZ229>234-239>247-230300-  
TEXAS COASTAL BEND AND RIO GRANDE PLAINS  
 
CITY SKY/WX TMP DP RH WIND PRES REMARKS
 
VICTORIA CLEAR 70 63 78 SE6 30.07R  
*BEEVILLE CLEAR 73 64 73 SE6 30.06R  
ROCKPORT CLEAR 75 65 70 E12 30.04S  
*PORT ARANSAS PTCLDY 75 64 68 E10 30.04S  
*PORT LAVACA CLEAR 73 64 73 E9 30.06R  
*INGLESIDE CLEAR 74 65 73 E5 30.04S  
CORPUS CHRISTI PTCLDY 73 65 75 E7 30.04R  
CORPUS NAS PTCLDY 75 67 76 E9 30.04R  
*ROBSTOWN NOT AVBL  
ALICE CLEAR 73 65 75 E8 30.03S  
KINGSVILLE NAS PTCLDY 73 67 81 E8 30.04R  
COTULLA MOCLDY 81 59 47 SE10 30.04R  
*FAITH RANCH MOCLDY 79 61 53 NE3 30.03S  
LAREDO MOCLDY 79 64 59 E13 30.06R  

 
 
TXZ248>255-230300-  
DEEP SOUTH TEXAS  
 
CITY SKY/WX TMP DP RH WIND PRES REMARKS
 
BROWNSVILLE CLEAR 75 68 78 NE5 30.01R  
PORT ISABEL PTCLDY 78 68 71 NE8 30.01R  
*SOUTH PADRE CLEAR 79 68 69 E14 30.00R  
HARLINGEN CLEAR 73 69 87 NE8 30.01R  
*HEBBRONVILLE PTCLDY 75 63 65 E7 30.06R  
MCALLEN CLOUDY 78 68 71 NE5 30.02R  
*WESLACO CLOUDY 75 67 75 NE5 30.02R  
FALFURRIAS CLEAR 72 65 80 E7 30.03R  
EDINBURG CLOUDY 76 68 75 NE6 30.03R  
*ZAPATA PTCLDY 78 63 60 E8 30.03R  

 
 
TXZ213>215-236>238-242>244-246-247-251-254-255-230300-  
CMAN STATIONS  
 
STATION/POSITION TIME TEMP WIND PRES WAVE
 
AIR SEA DIR/SP/G HT/PER  
(UTC) (F) (DEG/KT/KT) (MB) (FT/S)  
SABINE PASS 0200 70 75 30/ 4/ 6 1018.2  
SEA RIM ST PARK 0200 71 330/ 5/ 5 1018.8  
NORTH JETTY/GLS 0200 75 77 110/ 5/ 7 N/A  
EAGLE POINT 0200 74 76 110/ 3/ 4 1018.1  
MORGANS POINT 0200 74 120/ 3/ 3 1018.2  
MISSION/ARANSAS 0100 80/ 9 1018.0  
PORT O'CONNOR 0200 80/ 17/ 20 N/A  
PORT ARANSAS 0200 77 78 70/ 15/ 17 1018.0  
MALAQUITE BEACH 0200 78 78 60/ 14/ 16 1016.6  
BAFFIN BAY 0200 77 84 80/ 11/ 13 1017.0  
PORT ISABEL 0200 79 80 50/ 10/ 12 1015.8  

 
 
GMZ080-GMZ150>470-230300-  
OFFSHORE BUOY REPORTS  
 
STATION/POSITION TIME TEMP WIND PRES WAVE
 
AIR SEA DIR/SP/G HT/PER  
(UTC) (F) (DEG/KT/KT) (MB) (FT/S)  
20 E GALVESTON 0200 75 78 70/ 6/ 8 1017.7 3/ 6  
90 E PT ARANSAS 0200 76 81 40/ 12/ 16 1017.4 4/ 6  
35 NE PT MANSFLD 0200 78 81 60/ 14/ 16 1016.1 5/ 7  
200 E PT ISABEL 0200 80 81 60/ 17/ 19 1014.6 6/ 7  

 
 
CLICK HERE TO GO TO PREVIOUS BULLETINS.

The Nexlab TX Page Main Text Page